Weather History for Lancaster, PA

Change the Weather History Date:

Thursday, February 7, 2013

  Actual Average Record
Temperature  
Mean Temperature 28 °F -  
Max Temperature 34 °F 36 °F 53 °F (1990)
Min Temperature 21 °F 20 °F 1 °F (1993)
Degree Days  
Heating Degree Days 38    
Moisture  
Dew Point 17 °F    
Average Humidity 63    
Maximum Humidity 81    
Minimum Humidity 42    
Precipitation  
Precipitation 0.00 in - - ()
Sea Level Pressure  
Sea Level Pressure 30.38 in    
Wind  
Wind Speed 4 mph (ESE)    
Max Wind Speed 14 mph    
Max Gust Speed -    
Visibility 9 miles    
Events      
Averages and records for this station are not official NWS values.
T = Trace of Precipitation, MM = Missing Value Source: NWS Daily Summary

Daily Weather History Graph

Daily Weather History Graph

Search for Another Location

Airport:

Trip Planner

Search our weather history database for the weather conditions in past years. The results will help you decide how hot, cold, wet, or windy it might be!

Date:

Astronomy

Feb. 07, 2013 Rise Set
Actual Time 7:07 AM EST 5:31 PM EST
Civil Twilight 6:39 AM EST 5:59 PM EST
Nautical Twilight 6:07 AM EST 6:32 PM EST
Astronomical Twilight 5:35 AM EST 7:03 PM EST
Moon 4:45 AM EST (2/7) 2:53 PM EST (2/7)
Length of Visible Light 11h 20m
Length of Day
10h 24m
Waning Crescent, 9% of the Moon is Illuminated
Feb 7
Waning Crescent
Feb 10
New
Feb 17
First Quarter
Feb 25
Full
Mar 4
Last Quarter

Hourly Weather History & Observations

Time (EST) Temp. Windchill Dew Point Humidity Pressure Visibility Wind Dir Wind Speed Gust Speed Precip Events Conditions
12:53 AM 26.1 °F - 15.1 °F 63% 30.35 in 10.0 mi Calm Calm - N/A   Clear
1:53 AM 24.1 °F - 15.1 °F 69% 30.38 in 10.0 mi Calm Calm - N/A   Clear
2:53 AM 23.0 °F - 16.0 °F 74% 30.41 in 10.0 mi Calm Calm - N/A   Clear
3:53 AM 21.9 °F - 16.0 °F 78% 30.40 in 9.0 mi Calm Calm - N/A   Clear
4:53 AM 21.9 °F 17.2 °F 16.0 °F 78% 30.40 in 7.0 mi East 3.5 mph - N/A   Clear
5:53 AM 23.0 °F - 18.0 °F 81% 30.42 in 6.0 mi Calm Calm - N/A   Haze
6:53 AM 24.1 °F - 18.0 °F 77% 30.45 in 6.0 mi Calm Calm - N/A   Haze
7:53 AM 25.0 °F - 18.0 °F 75% 30.46 in 5.0 mi Calm Calm - N/A   Haze
8:53 AM 27.0 °F 18.7 °F 18.0 °F 69% 30.47 in 8.0 mi East 8.1 mph - N/A   Clear
9:53 AM 28.0 °F 20.0 °F 16.0 °F 61% 30.47 in 10.0 mi SE 8.1 mph - N/A   Clear
11:53 AM 32.0 °F 24.2 °F 15.1 °F 50% 30.43 in 10.0 mi East 9.2 mph - N/A   Clear
12:53 PM 33.1 °F 25.5 °F 15.1 °F 48% 30.41 in 10.0 mi SE 9.2 mph - N/A   Clear
1:53 PM 33.1 °F 25.5 °F 15.1 °F 48% 30.38 in 10.0 mi ESE 9.2 mph - N/A   Overcast
2:53 PM 34.0 °F 26.6 °F 16.0 °F 48% 30.36 in 10.0 mi East 9.2 mph - N/A   Overcast
3:53 PM 34.0 °F 26.6 °F 12.9 °F 42% 30.35 in 10.0 mi ESE 9.2 mph - N/A   Overcast
4:53 PM 34.0 °F 28.0 °F 15.1 °F 46% 30.34 in 10.0 mi ESE 6.9 mph - N/A   Overcast
5:53 PM 33.1 °F 26.1 °F 18.0 °F 54% 30.34 in 10.0 mi ESE 8.1 mph - N/A   Overcast
6:53 PM 32.0 °F 26.4 °F 19.0 °F 59% 30.35 in 10.0 mi East 5.8 mph - N/A   Overcast
7:53 PM 32.0 °F 26.4 °F 19.0 °F 59% 30.35 in 10.0 mi East 5.8 mph - N/A   Overcast
8:53 PM 32.0 °F 22.1 °F 21.0 °F 64% 30.34 in 10.0 mi ESE 13.8 mph - N/A   Overcast
9:25 PM 30.2 °F 21.3 °F 21.2 °F 69% 30.33 in 10.0 mi ESE 10.4 mph - N/A   Overcast
9:53 PM 30.9 °F 22.8 °F 21.0 °F 67% 30.32 in 10.0 mi ESE 9.2 mph - N/A   Overcast
10:53 PM 30.9 °F 23.5 °F 19.9 °F 64% 30.28 in 10.0 mi East 8.1 mph - N/A   Overcast
11:53 PM 30.9 °F 23.5 °F 19.9 °F 64% 30.26 in 10.0 mi ENE 8.1 mph - N/A   Overcast